Flag Weather past 2 weeks in Białystok, Poland

Now
35 °F

Fog.


Feels Like: 35 °F
Forecast: 28 / 34 °F
Wind: No wind

Location: Bialystok

Current Time: Nov 23, 2014 at 3:40:13 PM

Latest Report: Nov 23, 2014 at 3:00 PM


Visibility: 0 mi

Pressure: 30.52 "Hg

Humidity: 98%

Dew point: 34 °F

Location of BiałystokLocation

Historic Weather in Białystok — Graph

°F

Białystok temperature yesterday

Maximum temperature yesterday: 33 °F (at 1:00 PM)
Minimum temperature yesterday: 31 °F (at 4:00 AM)
Average temperature yesterday: 32 °F

Past Weeks' High & Low Weather Summary

 TemperatureHumidityPressure
High54 °F (Nov 11, 1:00 PM)100% (Nov 9, 9:00 AM)30.52 "Hg (Nov 9, 9:00 AM)
Low29 °F (Nov 19, 6:00 AM)69% (Nov 18, 3:00 PM)30.02 "Hg (Nov 8, 2:00 PM)
Average38 °F92%30.18 "Hg
* Reported Nov 8 2:00 PM — Nov 23 2:00 PM, Białystok, Weather by CustomWeather, © 2014

Note: Actual official high and low records may vary slightly from our data, if they occured in-between our weather recording intervals... More about our weather records

Advertising

Białystok weather history for previous 24 hours

 ConditionsComfort  
Time TempWeatherWind HumidityBarometerVisibility
2:00 PM
Nov 23
35 °FFog.1 mph98%30.51 "Hg1 mi
1:00 PM35 °FFog.1 mph96%30.52 "Hg1 mi
12:00 PM35 °FFog.1 mph96%30.51 "Hg1 mi
11:00 AM35 °FFog.1 mph97%30.51 "Hg1 mi
10:00 AM34 °FFog.2 mph96%30.51 "Hg1 mi
9:00 AM34 °FFog.1 mph96%30.50 "Hg1 mi
8:00 AM33 °FFog.1 mph98%30.49 "Hg1 mi
7:00 AM33 °FFog.2 mph98%30.47 "Hg1 mi
6:00 AM33 °FFog.1 mph98%30.46 "Hg1 mi
5:00 AM33 °FFog.1 mph98%30.45 "Hg1 mi
4:00 AM33 °FFog.1 mph98%30.45 "Hg1 mi
3:00 AM33 °FFog.1 mph98%30.44 "Hg1 mi
2:00 AM32 °FFog.1 mph98%30.45 "Hg1 mi
1:00 AM32 °FFog.1 mph98%30.44 "Hg1 mi
12:00 AM32 °FFog.1 mph98%30.44 "Hg1 mi
11:00 PM
Nov 22
32 °FFog.2 mph98%30.42 "Hg2 mi
10:00 PM33 °FFog.1 mph100%30.41 "Hg1 mi
9:00 PM33 °FFog.1 mph98%30.40 "Hg1 mi
8:00 PM32 °FFog.No wind98%30.40 "Hg1 mi
7:00 PM32 °FFog.1 mph98%30.39 "Hg1 mi
6:00 PM32 °FFog.1 mph98%30.39 "Hg1 mi
5:00 PM32 °FFog.1 mph98%30.39 "Hg1 mi
4:00 PM33 °FFog.1 mph97%30.39 "Hg1 mi
3:00 PM33 °FFog.1 mph95%30.37 "Hg1 mi
Weather by CustomWeather, © 2014

See weather overviewHow to use our weather pages